Torna al catalogo

STARLINK-36217

AttivoComunicazioniVLEO
NORAD 67120·PAYLOAD·🇺🇸 United States

Lanciato Dec 15, 2025 da Cape Canaveral Space Force Station

Loading…

Prossimi Passaggi (prossime 24 ore)

TLE

AggiornatoSource: CelesTrak SupGP

Epoca: Sep 14, 2026, 16:07 UTC

1 67120C 25299U   26257.67201389  .00041635  00000+0  15083-2 0  2575
2 67120  43.0009 182.0301 0001402 264.3128 144.7249 15.27551254    11

Traccia STARLINK-36217 in tempo reale con AllMySat

Download on the App Store